Weather in Portyanur

Russia / Mari El Republic     56°40′56″N   49°16′28″E
temp.,
°C
wind,
m/s
gust,
m/s
humid.,
%
clouds,
%
prec.,
mm/h
press.,
hPa
HPBL,
m
2 march, tue
tue200:00−9sw71393100 0.2 1009446
03:00−6sw81594100 1.6 1004585
06:00−3sw71495100 1.4 999617
09:000wsw61199100 2.3 997608
12:000w610100100 1.5 995632
15:000wnw61099100 2.7 995671
18:00−2w61291100 0.8 995477
21:00−3w5119685 0.9 997345
3 march, wed
wed300:00−3nw6119496 1.0 997478
03:00−6wnw499595 1.1 999249
06:00−5wnw4995100 0.2 998311
09:00−5nw5993100 0.3 1000507
12:00−4nw61092100 0.4 1000801
15:00−5nw71088100 0.6 1002745
18:00−7wnw61190100 0.1 1003745
21:00−8wnw5119299 0.1 1005417
4 march, thu
thu400:00−11w499681 0.1 1004200
03:00−9wsw499587 0.1 1004256
06:00−10wsw499675 0.1 1003184
09:00−6sw5109386 0.1 1001460
12:00−3ssw61192100 0.1 998761
15:00−2sw71293100 0.6 996896
18:00−1sw71396100 0.8 992787
21:00−1wsw81595100 2.5 990999
5 march, fri
fri500:00−1wsw81693100 0.6 990981
03:00−6w7158897 0.9 993810
06:00−8w71591100 0.1 997559
09:00−9wnw61191100 0.1 1000522
12:00−9wnw5990100 0.0 1003486
15:00−9wnw588880 0.0 1006554
18:00−14wnw349566 0.0 100838
21:00−16wnw239635 0.0 101020
6 march, sat
sat600:00−18nw119945 0.0 101120
03:00−17e129573 0.0 101020
06:00−16e2396100 0.0 100838
09:00−14ene2495100 0.0 1007165
12:00−12nne4593100 0.0 1005252
15:00−10n3691100 0.0 1005320
18:00−15nw339447 0.0 100530
21:00−14w339574 0.0 100641